Year,Month,Day,Hour,Minute,Value (Times are PST for windspeed in km/hr)
2016,10,08,00,00,0.00
2016,10,08,00,01,0.00
2016,10,08,00,02,0.00
2016,10,08,00,03,0.00
2016,10,08,00,04,0.00
2016,10,08,00,05,0.00
2016,10,08,00,06,0.00
2016,10,08,00,07,0.00
2016,10,08,00,08,0.00
2016,10,08,00,09,0.00
2016,10,08,00,10,0.00
2016,10,08,00,11,0.00
2016,10,08,00,12,0.00
2016,10,08,00,13,0.00
2016,10,08,00,14,0.00
2016,10,08,00,15,0.00
2016,10,08,00,16,0.00
2016,10,08,00,17,0.00
2016,10,08,00,18,0.00
2016,10,08,00,19,0.00
2016,10,08,00,20,0.00
2016,10,08,00,21,0.00
2016,10,08,00,22,0.00
2016,10,08,00,23,0.00
2016,10,08,00,24,0.00
2016,10,08,00,25,0.00
2016,10,08,00,26,0.00
2016,10,08,00,27,0.00
2016,10,08,00,28,0.00
2016,10,08,00,29,0.00
2016,10,08,00,30,0.00
2016,10,08,00,31,0.00
2016,10,08,00,32,0.00
2016,10,08,00,33,0.00
2016,10,08,00,34,0.00
2016,10,08,00,35,0.00
2016,10,08,00,36,0.00
2016,10,08,00,37,0.00
2016,10,08,00,38,0.00
2016,10,08,00,39,0.00
2016,10,08,00,40,0.00
2016,10,08,00,41,0.00
2016,10,08,00,42,0.00
2016,10,08,00,43,0.10
2016,10,08,00,44,1.50
2016,10,08,00,45,1.60
2016,10,08,00,46,1.10
2016,10,08,00,47,0.10
2016,10,08,00,48,0.00
2016,10,08,00,49,0.00
2016,10,08,00,50,0.00
2016,10,08,00,51,0.00
2016,10,08,00,52,1.80
2016,10,08,00,53,3.80
2016,10,08,00,54,2.00
2016,10,08,00,55,2.60
2016,10,08,00,56,1.50
2016,10,08,00,57,0.00
2016,10,08,00,58,0.00
2016,10,08,00,59,0.00
2016,10,08,01,00,0.00
2016,10,08,01,01,0.00
2016,10,08,01,02,0.00
2016,10,08,01,03,0.00
2016,10,08,01,04,0.00
2016,10,08,01,05,0.00
2016,10,08,01,06,0.00
2016,10,08,01,07,0.00
2016,10,08,01,08,0.00
2016,10,08,01,09,0.00
2016,10,08,01,10,0.00
2016,10,08,01,11,0.00
2016,10,08,01,12,0.00
2016,10,08,01,13,0.00
2016,10,08,01,14,0.00
2016,10,08,01,15,0.00
2016,10,08,01,16,0.00
2016,10,08,01,17,0.00
2016,10,08,01,18,0.00
2016,10,08,01,19,0.00
2016,10,08,01,20,0.00
2016,10,08,01,21,0.00
2016,10,08,01,22,0.00
2016,10,08,01,23,0.00
2016,10,08,01,24,0.00
2016,10,08,01,25,0.00
2016,10,08,01,26,0.00
2016,10,08,01,27,0.00
2016,10,08,01,28,0.00
2016,10,08,01,29,0.00
2016,10,08,01,30,0.00
2016,10,08,01,31,0.00
2016,10,08,01,32,0.00
2016,10,08,01,33,0.00
2016,10,08,01,34,0.00
2016,10,08,01,35,0.00
2016,10,08,01,36,0.00
2016,10,08,01,37,0.00
2016,10,08,01,38,0.00
2016,10,08,01,39,0.00
2016,10,08,01,40,0.00
2016,10,08,01,41,0.00
2016,10,08,01,42,0.00
2016,10,08,01,43,0.00
2016,10,08,01,44,0.00
2016,10,08,01,45,0.00
2016,10,08,01,46,0.00
2016,10,08,01,47,0.00
2016,10,08,01,48,0.00
2016,10,08,01,49,0.00
2016,10,08,01,50,0.00
2016,10,08,01,51,0.00
2016,10,08,01,52,0.00
2016,10,08,01,53,0.00
2016,10,08,01,54,0.00
2016,10,08,01,55,0.00
2016,10,08,01,56,0.00
2016,10,08,01,57,0.00
2016,10,08,01,58,0.00
2016,10,08,01,59,0.00
2016,10,08,02,00,0.00
2016,10,08,02,01,0.00
2016,10,08,02,02,0.00
2016,10,08,02,03,0.00
2016,10,08,02,04,0.00
2016,10,08,02,05,0.00
2016,10,08,02,06,0.00
2016,10,08,02,07,0.00
2016,10,08,02,08,0.00
2016,10,08,02,09,0.00
2016,10,08,02,10,0.00
2016,10,08,02,11,0.00
2016,10,08,02,12,0.00
2016,10,08,02,13,0.00
2016,10,08,02,14,0.00
2016,10,08,02,15,0.00
2016,10,08,02,16,0.00
2016,10,08,02,17,0.00
2016,10,08,02,18,0.00
2016,10,08,02,19,0.50
2016,10,08,02,20,3.20
2016,10,08,02,21,3.60
2016,10,08,02,22,2.20
2016,10,08,02,23,2.80
2016,10,08,02,24,2.90
2016,10,08,02,25,2.20
2016,10,08,02,26,3.00
2016,10,08,02,27,3.90
2016,10,08,02,28,3.60
2016,10,08,02,29,2.60
2016,10,08,02,30,4.40
2016,10,08,02,31,3.90
2016,10,08,02,32,2.50
2016,10,08,02,33,2.90
2016,10,08,02,34,2.50
2016,10,08,02,35,4.30
2016,10,08,02,36,6.90
2016,10,08,02,37,6.40
2016,10,08,02,38,6.40
2016,10,08,02,39,6.40
2016,10,08,02,40,6.40
2016,10,08,02,41,6.40
2016,10,08,02,42,6.40
2016,10,08,02,43,6.40
2016,10,08,02,44,6.40
2016,10,08,02,45,6.40
2016,10,08,02,46,6.40
2016,10,08,02,47,6.40
2016,10,08,14,07,4.40
2016,10,08,14,08,2.20
2016,10,08,14,09,1.70
2016,10,08,14,10,0.60
2016,10,08,14,11,2.90
2016,10,08,14,12,2.40
2016,10,08,14,13,2.20
2016,10,08,14,14,1.50
2016,10,08,14,15,3.40
2016,10,08,14,16,3.20
2016,10,08,14,17,3.60
2016,10,08,14,18,5.30
2016,10,08,14,19,3.90
2016,10,08,14,20,1.90
2016,10,08,14,21,0.80
2016,10,08,14,22,4.20
2016,10,08,14,23,2.80
2016,10,08,14,24,0.60
2016,10,08,14,25,1.90
2016,10,08,14,26,2.30
2016,10,08,14,27,1.90
2016,10,08,14,28,3.40
2016,10,08,14,29,5.50
2016,10,08,14,30,5.00
2016,10,08,14,31,2.70
2016,10,08,14,32,0.40
2016,10,08,14,33,0.80
2016,10,08,14,34,1.30
2016,10,08,14,35,3.50
2016,10,08,14,36,0.70
2016,10,08,14,37,1.30
2016,10,08,14,38,1.70
2016,10,08,14,39,2.10
2016,10,08,14,40,3.90
2016,10,08,14,41,4.30
2016,10,08,14,42,1.60
2016,10,08,14,43,0.50
2016,10,08,14,44,1.60
2016,10,08,14,45,1.60
2016,10,08,14,46,1.60
2016,10,08,14,47,1.60
2016,10,08,14,48,1.60
2016,10,08,14,49,1.60
2016,10,08,14,50,1.60
2016,10,08,14,51,1.60
2016,10,08,14,52,1.60
2016,10,08,14,53,1.60
2016,10,08,14,54,1.60
2016,10,08,18,51,1.60
2016,10,08,18,52,1.00
2016,10,08,18,53,0.80
2016,10,08,18,54,2.40
2016,10,08,18,55,5.00
2016,10,08,18,56,3.90
2016,10,08,18,57,5.60
2016,10,08,18,58,4.20
2016,10,08,18,59,2.60
2016,10,08,19,00,2.50
2016,10,08,19,01,2.30
2016,10,08,19,02,2.10
2016,10,08,19,03,2.20
2016,10,08,19,04,1.30
2016,10,08,19,05,1.90
2016,10,08,19,06,2.30
2016,10,08,19,07,0.70
2016,10,08,19,08,0.80
2016,10,08,19,09,0.70
2016,10,08,19,10,4.70
2016,10,08,19,11,1.90
2016,10,08,19,12,0.00
2016,10,08,19,13,0.00
2016,10,08,19,14,0.00
2016,10,08,19,15,0.00
2016,10,08,19,16,0.00
2016,10,08,19,17,0.00
2016,10,08,19,18,0.00
2016,10,08,19,19,0.00
2016,10,08,19,20,0.00
2016,10,08,19,21,0.00
2016,10,08,19,22,0.00
2016,10,08,19,55,0.00
2016,10,08,19,56,0.00
2016,10,08,19,57,0.00
2016,10,08,19,58,0.00
2016,10,08,19,59,0.00
2016,10,08,20,00,0.00
2016,10,08,20,01,0.00
2016,10,08,20,02,0.00
2016,10,08,20,03,0.00
2016,10,08,20,04,0.00
2016,10,08,20,37,4.20
2016,10,08,20,38,3.50
2016,10,08,20,39,0.70
2016,10,08,20,40,0.10
2016,10,08,20,41,1.80
2016,10,08,20,42,1.60
2016,10,08,20,43,1.80
2016,10,08,20,44,2.80
2016,10,08,20,45,1.70
2016,10,08,20,46,2.50
2016,10,08,20,47,2.60
2016,10,08,20,48,2.20
2016,10,08,20,49,1.30
2016,10,08,20,50,0.20
2016,10,08,20,51,0.00
2016,10,08,20,52,0.90
2016,10,08,20,53,1.60
2016,10,08,20,54,1.00
2016,10,08,20,55,1.00
2016,10,08,20,56,4.10
2016,10,08,20,57,1.80
2016,10,08,20,58,1.10
2016,10,08,20,59,0.30
2016,10,08,21,00,0.00
2016,10,08,21,01,0.30
2016,10,08,21,02,0.20
2016,10,08,21,03,0.00
2016,10,08,21,04,0.00
2016,10,08,21,05,0.00
2016,10,08,21,06,0.00
2016,10,08,21,07,0.00
2016,10,08,21,08,0.10
2016,10,08,21,09,0.00
2016,10,08,21,10,0.50
2016,10,08,21,11,0.20
2016,10,08,21,12,0.30
2016,10,08,21,13,0.00
2016,10,08,21,14,0.00
2016,10,08,21,15,0.00
2016,10,08,21,16,0.00
2016,10,08,21,17,0.00
2016,10,08,21,18,0.50
2016,10,08,21,19,0.00
2016,10,08,21,20,0.00
2016,10,08,21,21,0.00
2016,10,08,21,22,0.00
2016,10,08,21,23,0.00
2016,10,08,21,24,0.00
2016,10,08,21,25,0.00
2016,10,08,21,26,0.00
2016,10,08,21,27,0.00
2016,10,08,21,28,0.00
2016,10,08,21,29,0.00
2016,10,08,21,30,0.00
2016,10,08,21,31,0.00
2016,10,08,21,32,1.00
2016,10,08,21,33,2.60
2016,10,08,21,34,3.10
2016,10,08,21,35,0.20
2016,10,08,21,36,2.00
2016,10,08,21,37,0.70
2016,10,08,21,38,0.40
2016,10,08,21,39,0.00
2016,10,08,21,40,0.00
2016,10,08,21,41,0.00
2016,10,08,21,42,0.00
2016,10,08,21,43,0.00
2016,10,08,21,44,0.10
2016,10,08,21,45,0.00
2016,10,08,21,46,0.00
2016,10,08,21,47,0.00
2016,10,08,21,48,0.00
2016,10,08,21,49,0.00
2016,10,08,21,50,0.00
2016,10,08,21,51,0.00
2016,10,08,21,52,0.00
2016,10,08,21,53,0.00
2016,10,08,21,54,0.00
2016,10,08,21,55,0.00
2016,10,08,21,56,0.00
2016,10,08,21,57,0.00
2016,10,08,21,58,0.00
2016,10,08,21,59,0.00
2016,10,08,22,00,0.00
2016,10,08,22,01,0.00
2016,10,08,22,02,0.00
2016,10,08,22,03,0.00
2016,10,08,22,04,0.80
2016,10,08,22,05,0.00
2016,10,08,22,06,0.00
2016,10,08,22,07,0.00
2016,10,08,22,08,0.00
2016,10,08,22,09,0.00
2016,10,08,22,10,0.00
2016,10,08,22,11,0.00
2016,10,08,22,12,0.00
2016,10,08,22,13,0.00
2016,10,08,22,14,0.00
2016,10,08,22,15,0.00
2016,10,08,22,16,0.00
2016,10,08,22,17,0.00
2016,10,08,22,18,0.00
2016,10,08,22,19,0.00
2016,10,08,22,20,0.00
2016,10,08,22,21,0.00
2016,10,08,22,22,0.00
2016,10,08,22,23,0.00
2016,10,08,22,24,0.00
2016,10,08,22,25,0.00
2016,10,08,22,26,0.00
2016,10,08,22,27,0.00
2016,10,08,22,28,0.00
2016,10,08,22,29,0.00
2016,10,08,22,30,0.00
2016,10,08,22,31,0.00
2016,10,08,22,32,0.00
2016,10,08,22,33,0.60
2016,10,08,22,34,0.30
2016,10,08,22,35,0.20
2016,10,08,22,36,0.00
2016,10,08,22,37,0.00
2016,10,08,22,38,0.00
2016,10,08,22,39,0.00
2016,10,08,22,40,0.00
2016,10,08,22,41,0.00
2016,10,08,22,42,1.40
2016,10,08,22,43,0.20
2016,10,08,22,44,0.00
2016,10,08,22,45,0.00
2016,10,08,22,46,0.00
2016,10,08,22,47,1.20
2016,10,08,22,48,0.10
2016,10,08,22,49,0.00
2016,10,08,22,50,0.00
2016,10,08,22,51,0.00
2016,10,08,22,52,0.00
2016,10,08,22,53,0.00
2016,10,08,22,54,0.00
2016,10,08,22,55,0.00
2016,10,08,22,56,0.00
2016,10,08,22,57,0.00
2016,10,08,22,58,0.00
2016,10,08,22,59,0.00
2016,10,08,23,00,0.00
2016,10,08,23,01,0.00
2016,10,08,23,02,0.00
2016,10,08,23,03,0.00
2016,10,08,23,04,0.00
2016,10,08,23,05,0.00
2016,10,08,23,06,0.00
2016,10,08,23,07,0.00
2016,10,08,23,08,0.00
2016,10,08,23,09,0.70
2016,10,08,23,10,1.70
2016,10,08,23,11,1.70
2016,10,08,23,12,2.60
2016,10,08,23,13,2.00
2016,10,08,23,14,0.20
2016,10,08,23,15,0.60
2016,10,08,23,16,1.50
2016,10,08,23,17,0.40
2016,10,08,23,18,0.20
2016,10,08,23,19,0.00
2016,10,08,23,20,0.00
2016,10,08,23,21,0.00
2016,10,08,23,22,0.00
2016,10,08,23,23,0.00
2016,10,08,23,24,0.00
2016,10,08,23,25,0.00
2016,10,08,23,26,0.00
2016,10,08,23,27,0.00
2016,10,08,23,28,0.00
2016,10,08,23,29,0.00
2016,10,08,23,30,0.00
2016,10,08,23,31,0.00
2016,10,08,23,32,0.00
2016,10,08,23,33,0.00
2016,10,08,23,34,0.00
2016,10,08,23,35,0.00
2016,10,08,23,36,0.00
2016,10,08,23,37,0.00
2016,10,08,23,38,0.00
2016,10,08,23,39,0.00
2016,10,08,23,40,0.00
2016,10,08,23,41,1.30
2016,10,08,23,42,1.20
2016,10,08,23,43,0.00
2016,10,08,23,44,0.00
2016,10,08,23,45,0.00
2016,10,08,23,46,0.00
2016,10,08,23,47,0.00
2016,10,08,23,48,0.00
2016,10,08,23,49,0.00
2016,10,08,23,50,0.00
2016,10,08,23,51,0.00
2016,10,08,23,52,0.00
2016,10,08,23,53,0.00
2016,10,08,23,54,0.00
2016,10,08,23,55,0.00
2016,10,08,23,56,0.00
2016,10,08,23,57,0.00
2016,10,08,23,58,0.00
2016,10,08,23,59,0.00
